Nashua, NH

6:34 AM EST on February 24, 2017 (GMT -0500)
Boire

Weather History for KASH - January, 2012

Change the Weather History Date:

Saturday, January 14, 2012

  Actual Average Record
Temperature  
Mean Temperature 24 °F -  
Max Temperature 31 °F 32 °F 60 °F (2005)
Min Temperature 12 °F 11 °F -24 °F (1957)
Degree Days  
Heating Degree Days 40    
Moisture  
Dew Point 13 °F    
Average Humidity 58    
Maximum Humidity 69    
Minimum Humidity 40    
Precipitation  
Precipitation 0.00 in - - ()
Sea Level Pressure  
Sea Level Pressure 29.80 in    
Wind  
Wind Speed 10 mph (WNW)    
Max Wind Speed 21 mph    
Max Gust Speed 40 mph    
Visibility 10 miles    
Events      
Averages and records for this station are not official NWS values.
T = Trace of Precipitation, MM = Missing Value Source: NWS Daily Summary

Daily Weather History Graph

Daily Weather History Graph

Search for Another Location

Airport or City:

Trip Planner

Search our weather history database for the weather conditions in past years. The results will help you decide how hot, cold, wet, or windy it might be!

Date:

Astronomy

Jan. 14, 2012 Rise Set
Actual Time 7:14 AM EST 4:35 PM EST
Civil Twilight 6:43 AM EST 5:07 PM EST
Nautical Twilight 6:08 AM EST 5:42 PM EST
Astronomical Twilight 5:34 AM EST 6:16 PM EST
Moon 11:03 PM EST (1/14) 9:48 AM EST (1/14)
Length of Visible Light 10h 23m
Length of Day
9h 21m
Waning Gibbous, 69% of the Moon is Illuminated
Jan 14
Waning Gibbous
Jan 16
Last Quarter
Jan 23
New
Jan 30
First Quarter
Feb 7
Full

Hourly Weather History & Observations

Time (EST) Temp. Windchill Dew Point Humidity Pressure Visibility Wind Dir Wind Speed Gust Speed Precip Events Conditions
12:51 AM 31.1 °F 23.1 °F 21.0 °F 66% 29.59 in 10.0 mi West 9.2 mph - N/A   Overcast
1:51 AM 31.1 °F 21.9 °F 21.0 °F 66% 29.61 in 10.0 mi West 11.5 mph - N/A   Overcast
2:51 AM 30.0 °F 20.5 °F 20.1 °F 67% 29.64 in 10.0 mi WSW 11.5 mph - N/A   Mostly Cloudy
3:51 AM 30.0 °F 21.1 °F 19.0 °F 64% 29.66 in 10.0 mi West 10.4 mph - N/A   Partly Cloudy
4:51 AM 29.1 °F 20.0 °F 19.0 °F 66% 29.68 in 10.0 mi West 10.4 mph - N/A   Clear
5:51 AM 28.0 °F 20.8 °F 19.0 °F 69% 29.70 in 10.0 mi Variable 6.9 mph - N/A   Clear
6:51 AM 27.1 °F 19.7 °F 18.1 °F 69% 29.72 in 10.0 mi WSW 6.9 mph - N/A   Clear
7:51 AM 28.0 °F 20.8 °F 18.1 °F 66% 29.75 in 10.0 mi Variable 6.9 mph - N/A   Clear
8:51 AM 29.1 °F 20.6 °F 16.2 °F 58% 29.77 in 10.0 mi West 9.2 mph - N/A   Scattered Clouds
9:51 AM 29.1 °F 16.0 °F 14.0 °F 53% 29.81 in 10.0 mi WNW 20.7 mph 40.3 mph N/A   Overcast
10:51 AM 30.0 °F 20.5 °F 15.1 °F 54% 29.81 in 10.0 mi WNW 11.5 mph 33.4 mph N/A   Mostly Cloudy
11:51 AM 30.0 °F 19.5 °F 15.1 °F 54% 29.79 in 10.0 mi WNW 13.8 mph 19.6 mph N/A   Mostly Cloudy
12:51 PM 30.0 °F 20.5 °F 13.1 °F 49% 29.79 in 10.0 mi West 11.5 mph 23.0 mph N/A   Mostly Cloudy
1:51 PM 29.1 °F 18.4 °F 12.0 °F 49% 29.81 in 10.0 mi West 13.8 mph 21.9 mph N/A   Scattered Clouds
2:51 PM 29.1 °F 20.0 °F 7.2 °F 40% 29.84 in 10.0 mi WNW 10.4 mph - N/A   Scattered Clouds
3:51 PM 27.1 °F 18.9 °F 10.0 °F 49% 29.87 in 10.0 mi West 8.1 mph 16.1 mph N/A   Scattered Clouds
4:51 PM 26.1 °F 16.2 °F 9.1 °F 49% 29.89 in 10.0 mi NW 10.4 mph - N/A   Clear
5:51 PM 23.0 °F 15.8 °F 8.1 °F 53% 29.92 in 10.0 mi NW 5.8 mph - N/A   Clear
6:51 PM 21.0 °F 10.6 °F 8.1 °F 57% 29.95 in 10.0 mi NW 9.2 mph - N/A   Clear
7:51 PM 19.0 °F 6.8 °F 5.0 °F 54% 29.98 in 10.0 mi NNW 11.5 mph - N/A   Clear
8:51 PM 18.1 °F 6.3 °F 5.0 °F 57% 30.01 in 10.0 mi NW 10.4 mph - N/A   Clear
11:51 PM 12.0 °F 1.5 °F 3.0 °F 67% 30.05 in 10.0 mi NNW 6.9 mph - N/A   Clear